Location: *
(46.0770°N, 1.6444°E)
Time: 12:56:50
(UTC+00:00)

Cosmos 2322 - Pass Details

Date: 16 September 2019
Orbit: 839 x 856 km, 71.0° (Epoch: 16 October)

Event Time Altitude Azimuth Distance (km) Brightness Sun altitude
Rises 19:06:31 0° 331° (NNW) 3,438 7.6 -11.6°
Reaches altitude 10° 19:09:00 10° 328° (NNW) 2,498 6.9 -12.0°
Maximum altitude 19:14:40 65° 248° (WSW) 938 4.1 -12.9°
Drops below altitude 10° 19:20:18 10° 168° (SSE) 2,478 5.8 -13.8°
Enters shadow 19:22:44 - 165° (SSE) 3,395 6.5 -14.2°
